Time,TemperatureF,DewpointF,PressureIn,WindDirection,WindDirectionDegrees,WindSpeedMPH,WindSpeedGustMPH,Humidity,HourlyPrecipIn,Conditions,Clouds,dailyrainin,SoftwareType,DateUTC
2013-04-27 00:03:00,75.0,67.0,30.19,East,85,8.0,-999.0,77,-99.99,,,-99.99,,2013-04-27 04:03:00,
2013-04-27 00:13:00,75.0,67.0,30.19,East,85,8.0,-999.0,77,-99.99,,,-99.99,,2013-04-27 04:13:00,
2013-04-27 00:23:00,75.0,67.0,30.19,East,90,7.0,-999.0,77,-99.99,,,-99.99,,2013-04-27 04:23:00,
2013-04-27 00:33:00,74.0,66.0,30.19,East,84,6.0,-999.0,77,-99.99,,,-99.99,,2013-04-27 04:33:00,
2013-04-27 00:43:00,74.0,66.0,30.19,East,84,6.0,-999.0,77,-99.99,,,-99.99,,2013-04-27 04:43:00,
2013-04-27 00:52:00,74.0,67.0,30.19,ESE,106,6.0,-999.0,79,-99.99,,,-99.99,,2013-04-27 04:52:00,
2013-04-27 01:02:00,74.0,67.0,30.18,ESE,122,7.0,-999.0,79,-99.99,,,-99.99,,2013-04-27 05:02:00,
2013-04-27 01:12:00,74.0,67.0,30.18,ESE,122,7.0,-999.0,79,-99.99,,,-99.99,,2013-04-27 05:12:00,
2013-04-27 01:22:00,73.0,67.0,30.19,East,99,7.0,-999.0,81,-99.99,,,-99.99,,2013-04-27 05:22:00,
2013-04-27 01:32:00,73.0,66.0,30.18,SE,140,6.0,-999.0,80,-99.99,,,-99.99,,2013-04-27 05:32:00,
2013-04-27 01:42:00,73.0,66.0,30.18,SE,140,6.0,-999.0,80,-99.99,,,-99.99,,2013-04-27 05:42:00,
2013-04-27 01:52:00,73.0,66.0,30.18,ESE,111,5.0,-999.0,80,-99.99,,,-99.99,,2013-04-27 05:52:00,
2013-04-27 02:02:00,72.0,66.0,30.17,East,96,5.0,-999.0,82,-99.99,,,-99.99,,2013-04-27 06:02:00,
2013-04-27 02:12:00,72.0,66.0,30.17,East,96,5.0,-999.0,82,-99.99,,,-99.99,,2013-04-27 06:12:00,
2013-04-27 02:22:00,72.0,66.0,30.17,East,89,4.0,-999.0,82,-99.99,,,-99.99,,2013-04-27 06:22:00,
2013-04-27 02:32:00,72.0,66.0,30.17,East,87,1.0,-999.0,82,-99.99,,,-99.99,,2013-04-27 06:32:00,
2013-04-27 02:42:00,72.0,66.0,30.17,East,87,1.0,-999.0,82,-99.99,,,-99.99,,2013-04-27 06:42:00,
2013-04-27 02:52:00,72.0,67.0,30.16,East,87,2.0,-999.0,83,-99.99,,,-99.99,,2013-04-27 06:52:00,
2013-04-27 03:02:00,72.0,66.0,30.16,East,96,2.0,-999.0,82,-99.99,,,-99.99,,2013-04-27 07:02:00,
2013-04-27 03:11:00,72.0,66.0,30.16,East,96,2.0,-999.0,82,-99.99,,,-99.99,,2013-04-27 07:11:00,
2013-04-27 03:21:00,72.0,67.0,30.15,ESE,105,1.0,-999.0,83,-99.99,,,-99.99,,2013-04-27 07:21:00,
2013-04-27 03:32:00,72.0,67.0,30.15,ESE,105,1.0,-999.0,84,-99.99,,,-99.99,,2013-04-27 07:32:00,
2013-04-27 03:42:00,72.0,67.0,30.15,ESE,105,1.0,-999.0,84,-99.99,,,-99.99,,2013-04-27 07:42:00,
2013-04-27 03:52:00,71.0,66.0,30.15,East,91,1.0,-999.0,83,-99.99,,,-99.99,,2013-04-27 07:52:00,
2013-04-27 04:02:00,71.0,66.0,30.15,East,97,1.0,-999.0,84,-99.99,,,-99.99,,2013-04-27 08:02:00,
2013-04-27 04:12:00,71.0,66.0,30.15,East,97,1.0,-999.0,84,-99.99,,,-99.99,,2013-04-27 08:12:00,
2013-04-27 04:21:00,71.0,66.0,30.14,East,83,1.0,-999.0,85,-99.99,,,-99.99,,2013-04-27 08:21:00,
2013-04-27 04:33:00,71.0,67.0,30.14,East,92,4.0,-999.0,86,-99.99,,,-99.99,,2013-04-27 08:33:00,
2013-04-27 04:42:00,71.0,67.0,30.14,East,92,4.0,-999.0,86,-99.99,,,-99.99,,2013-04-27 08:42:00,
2013-04-27 04:51:00,71.0,67.0,30.13,ENE,74,3.0,-999.0,86,-99.99,,,-99.99,,2013-04-27 08:51:00,
2013-04-27 05:01:00,70.0,66.0,30.13,East,90,3.0,-999.0,87,-99.99,,,-99.99,,2013-04-27 09:01:00,
2013-04-27 05:11:00,70.0,66.0,30.13,East,90,3.0,-999.0,87,-99.99,,,-99.99,,2013-04-27 09:11:00,
2013-04-27 05:21:00,70.0,66.0,30.12,East,82,2.0,-999.0,86,-99.99,,,-99.99,,2013-04-27 09:21:00,
2013-04-27 05:33:00,70.0,66.0,30.12,ENE,74,3.0,-999.0,86,-99.99,,,-99.99,,2013-04-27 09:33:00,
2013-04-27 05:43:00,70.0,66.0,30.12,ENE,74,3.0,-999.0,86,-99.99,,,-99.99,,2013-04-27 09:43:00,
2013-04-27 05:53:00,70.0,66.0,30.12,ENE,76,4.0,-999.0,87,-99.99,,,-99.99,,2013-04-27 09:53:00,
2013-04-27 06:03:00,70.0,66.0,30.12,ENE,69,5.0,-999.0,88,-99.99,,,-99.99,,2013-04-27 10:03:00,
2013-04-27 06:12:00,70.0,66.0,30.12,ENE,69,5.0,-999.0,88,-99.99,,,-99.99,,2013-04-27 10:12:00,
2013-04-27 06:22:00,70.0,67.0,30.12,ENE,76,5.0,-999.0,89,-99.99,,,-99.99,,2013-04-27 10:22:00,
2013-04-27 06:33:00,70.0,67.0,30.13,NE,55,4.0,-999.0,89,-99.99,,,-99.99,,2013-04-27 10:33:00,
2013-04-27 06:42:00,70.0,67.0,30.13,NE,55,4.0,-999.0,89,-99.99,,,-99.99,,2013-04-27 10:42:00,
2013-04-27 06:52:00,70.0,67.0,30.13,ENE,75,4.0,-999.0,91,-99.99,,,-99.99,,2013-04-27 10:52:00,
2013-04-27 07:02:00,69.0,66.0,30.13,ENE,76,5.0,-999.0,91,-99.99,,,-99.99,,2013-04-27 11:02:00,
2013-04-27 07:12:00,69.0,66.0,30.14,East,81,5.0,-999.0,91,-99.99,,,-99.99,,2013-04-27 11:12:00,
2013-04-27 07:22:00,69.0,66.0,30.14,East,81,5.0,-999.0,91,-99.99,,,-99.99,,2013-04-27 11:22:00,
2013-04-27 07:32:00,69.0,66.0,30.14,East,91,5.0,-999.0,91,-99.99,,,-99.99,,2013-04-27 11:32:00,
2013-04-27 07:42:00,69.0,66.0,30.14,East,91,5.0,-999.0,91,-99.99,,,-99.99,,2013-04-27 11:42:00,
2013-04-27 07:52:00,70.0,67.0,30.14,East,80,5.0,-999.0,91,-99.99,,,-99.99,,2013-04-27 11:52:00,
2013-04-27 08:01:00,70.0,67.0,30.14,ENE,71,5.0,-999.0,90,-99.99,,,-99.99,,2013-04-27 12:01:00,
2013-04-27 08:11:00,70.0,67.0,30.14,ENE,71,5.0,-999.0,90,-99.99,,,-99.99,,2013-04-27 12:11:00,
2013-04-27 08:22:00,70.0,67.0,30.15,East,88,6.0,-999.0,89,-99.99,,,-99.99,,2013-04-27 12:22:00,
2013-04-27 08:32:00,71.0,67.0,30.15,ENE,77,5.0,-999.0,88,-99.99,,,-99.99,,2013-04-27 12:32:00,
2013-04-27 08:42:00,71.0,67.0,30.15,ENE,77,5.0,-999.0,88,-99.99,,,-99.99,,2013-04-27 12:42:00,
2013-04-27 08:52:00,71.0,67.0,30.15,East,84,5.0,-999.0,86,-99.99,,,-99.99,,2013-04-27 12:52:00,
2013-04-27 09:02:00,72.0,67.0,30.15,East,98,5.0,-999.0,84,-99.99,,,-99.99,,2013-04-27 13:02:00,
2013-04-27 09:12:00,72.0,67.0,30.15,East,98,5.0,-999.0,84,-99.99,,,-99.99,,2013-04-27 13:12:00,
2013-04-27 09:22:00,72.0,66.0,30.15,East,98,6.0,-999.0,82,-99.99,,,-99.99,,2013-04-27 13:22:00,
2013-04-27 09:32:00,73.0,65.0,30.15,East,90,6.0,-999.0,77,-99.99,,,-99.99,,2013-04-27 13:32:00,
2013-04-27 09:42:00,73.0,65.0,30.15,East,90,6.0,-999.0,77,-99.99,,,-99.99,,2013-04-27 13:42:00,
2013-04-27 09:52:00,74.0,64.0,30.15,ESE,111,6.0,-999.0,72,-99.99,,,-99.99,,2013-04-27 13:52:00,
2013-04-27 10:02:00,75.0,66.0,30.15,East,96,7.0,-999.0,74,-99.99,,,-99.99,,2013-04-27 14:02:00,
2013-04-27 10:11:00,75.0,66.0,30.15,East,96,7.0,-999.0,74,-99.99,,,-99.99,,2013-04-27 14:11:00,
2013-04-27 10:21:00,75.0,67.0,30.15,ESE,103,7.0,-999.0,75,-99.99,,,-99.99,,2013-04-27 14:21:00,
2013-04-27 10:32:00,76.0,66.0,30.15,East,79,7.0,-999.0,71,-99.99,,,-99.99,,2013-04-27 14:32:00,
2013-04-27 10:42:00,76.0,66.0,30.15,East,79,7.0,-999.0,71,-99.99,,,-99.99,,2013-04-27 14:42:00,
2013-04-27 10:52:00,76.0,65.0,30.15,East,87,8.0,-999.0,68,-99.99,,,-99.99,,2013-04-27 14:52:00,
2013-04-27 11:01:00,77.0,66.0,30.16,East,79,9.0,-999.0,68,-99.99,,,-99.99,,2013-04-27 15:01:00,
2013-04-27 11:12:00,77.0,66.0,30.16,East,79,9.0,-999.0,68,-99.99,,,-99.99,,2013-04-27 15:12:00,
2013-04-27 11:22:00,77.0,66.0,30.16,East,90,8.0,-999.0,68,-99.99,,,-99.99,,2013-04-27 15:22:00,
2013-04-27 11:33:00,78.0,66.0,30.16,East,98,8.0,-999.0,67,-99.99,,,-99.99,,2013-04-27 15:33:00,
2013-04-27 11:43:00,78.0,66.0,30.16,East,98,8.0,-999.0,67,-99.99,,,-99.99,,2013-04-27 15:43:00,
2013-04-27 11:52:00,79.0,67.0,30.16,East,97,8.0,-999.0,66,-99.99,,,-99.99,,2013-04-27 15:52:00,
2013-04-27 12:03:00,78.0,66.0,30.16,East,89,7.0,-999.0,67,-99.99,,,-99.99,,2013-04-27 16:03:00,
2013-04-27 12:13:00,78.0,66.0,30.16,East,89,7.0,-999.0,67,-99.99,,,-99.99,,2013-04-27 16:13:00,
2013-04-27 12:22:00,79.0,66.0,30.16,ENE,63,9.0,-999.0,64,-99.99,,,-99.99,,2013-04-27 16:22:00,
2013-04-27 12:33:00,79.0,66.0,30.15,ENE,74,9.0,-999.0,64,-99.99,,,-99.99,,2013-04-27 16:33:00,
2013-04-27 12:42:00,79.0,66.0,30.15,ENE,74,9.0,-999.0,64,-99.99,,,-99.99,,2013-04-27 16:42:00,
2013-04-27 12:52:00,80.0,67.0,30.15,East,85,8.0,-999.0,64,-99.99,,,-99.99,,2013-04-27 16:52:00,
2013-04-27 13:02:00,80.0,66.0,30.14,NE,53,8.0,-999.0,62,-99.99,,,-99.99,,2013-04-27 17:02:00,
2013-04-27 13:12:00,80.0,66.0,30.14,NE,53,8.0,-999.0,62,-99.99,,,-99.99,,2013-04-27 17:12:00,
2013-04-27 13:22:00,81.0,68.0,30.14,ENE,68,8.0,-999.0,64,-99.99,,,-99.99,,2013-04-27 17:22:00,
2013-04-27 13:32:00,80.0,66.0,30.13,ENE,66,10.0,-999.0,62,-99.99,,,-99.99,,2013-04-27 17:32:00,
2013-04-27 13:42:00,80.0,66.0,30.13,ENE,66,10.0,-999.0,62,-99.99,,,-99.99,,2013-04-27 17:42:00,
2013-04-27 13:53:00,81.0,65.0,30.13,East,100,8.0,-999.0,58,-99.99,,,-99.99,,2013-04-27 17:53:00,
2013-04-27 14:02:00,81.0,65.0,30.12,East,95,8.0,-999.0,59,-99.99,,,-99.99,,2013-04-27 18:02:00,
2013-04-27 14:12:00,81.0,65.0,30.12,East,95,8.0,-999.0,59,-99.99,,,-99.99,,2013-04-27 18:12:00,
2013-04-27 14:22:00,81.0,64.0,30.12,ENE,57,9.0,-999.0,56,-99.99,,,-99.99,,2013-04-27 18:22:00,
2013-04-27 14:32:00,82.0,66.0,30.11,East,87,8.0,-999.0,58,-99.99,,,-99.99,,2013-04-27 18:32:00,
2013-04-27 14:42:00,82.0,66.0,30.11,East,87,8.0,-999.0,58,-99.99,,,-99.99,,2013-04-27 18:42:00,
2013-04-27 14:52:00,81.0,66.0,30.11,ENE,58,11.0,-999.0,60,-99.99,,,-99.99,,2013-04-27 18:52:00,
2013-04-27 15:02:00,82.0,66.0,30.11,East,84,9.0,-999.0,59,-99.99,,,-99.99,,2013-04-27 19:02:00,
2013-04-27 15:11:00,82.0,66.0,30.11,East,84,9.0,-999.0,59,-99.99,,,-99.99,,2013-04-27 19:11:00,
2013-04-27 15:21:00,82.0,65.0,30.10,ENE,60,10.0,-999.0,56,-99.99,,,-99.99,,2013-04-27 19:21:00,
2013-04-27 15:32:00,83.0,66.0,30.09,East,87,9.0,-999.0,57,-99.99,,,-99.99,,2013-04-27 19:32:00,
2013-04-27 15:42:00,83.0,66.0,30.09,East,87,9.0,-999.0,57,-99.99,,,-99.99,,2013-04-27 19:42:00,
2013-04-27 15:52:00,82.0,66.0,30.08,ENE,66,8.0,-999.0,59,-99.99,,,-99.99,,2013-04-27 19:52:00,
2013-04-27 16:02:00,83.0,66.0,30.08,East,86,7.0,-999.0,57,-99.99,,,-99.99,,2013-04-27 20:02:00,
2013-04-27 16:11:00,83.0,66.0,30.08,East,86,7.0,-999.0,57,-99.99,,,-99.99,,2013-04-27 20:11:00,
2013-04-27 16:21:00,83.0,67.0,30.07,East,83,9.0,-999.0,58,-99.99,,,-99.99,,2013-04-27 20:21:00,
2013-04-27 16:32:00,83.0,67.0,30.06,ESE,105,7.0,-999.0,58,-99.99,,,-99.99,,2013-04-27 20:32:00,
2013-04-27 16:42:00,83.0,67.0,30.06,ESE,105,7.0,-999.0,58,-99.99,,,-99.99,,2013-04-27 20:42:00,
2013-04-27 16:52:00,83.0,66.0,30.05,ENE,76,9.0,-999.0,56,-99.99,,,-99.99,,2013-04-27 20:52:00,
2013-04-27 17:02:00,83.0,66.0,30.05,East,99,11.0,-999.0,57,-99.99,,,-99.99,,2013-04-27 21:02:00,
2013-04-27 17:12:00,83.0,66.0,30.05,East,99,11.0,-999.0,57,-99.99,,,-99.99,,2013-04-27 21:12:00,
2013-04-27 17:21:00,82.0,66.0,30.05,East,96,10.0,-999.0,59,-99.99,,,-99.99,,2013-04-27 21:21:00,
2013-04-27 17:33:00,83.0,67.0,30.04,East,101,10.0,-999.0,58,-99.99,,,-99.99,,2013-04-27 21:33:00,
2013-04-27 17:43:00,83.0,67.0,30.04,East,101,10.0,-999.0,58,-99.99,,,-99.99,,2013-04-27 21:43:00,
2013-04-27 17:53:00,83.0,66.0,30.04,NE,52,11.0,-999.0,57,-99.99,,,-99.99,,2013-04-27 21:53:00,
2013-04-27 18:03:00,82.0,66.0,30.04,ENE,75,12.0,-999.0,59,-99.99,,,-99.99,,2013-04-27 22:03:00,
2013-04-27 18:13:00,82.0,66.0,30.04,ENE,75,12.0,-999.0,59,-99.99,,,-99.99,,2013-04-27 22:13:00,
2013-04-27 18:23:00,82.0,66.0,30.04,ENE,61,12.0,-999.0,58,-99.99,,,-99.99,,2013-04-27 22:23:00,
2013-04-27 18:32:00,82.0,66.0,30.04,ESE,114,11.0,-999.0,58,-99.99,,,-99.99,,2013-04-27 22:32:00,
2013-04-27 18:42:00,82.0,66.0,30.04,ESE,114,11.0,-999.0,58,-99.99,,,-99.99,,2013-04-27 22:42:00,
2013-04-27 18:52:00,82.0,67.0,30.04,East,99,9.0,-999.0,60,-99.99,,,-99.99,,2013-04-27 22:52:00,
2013-04-27 19:02:00,81.0,67.0,30.04,East,98,12.0,-999.0,62,-99.99,,,-99.99,,2013-04-27 23:02:00,
2013-04-27 19:12:00,81.0,67.0,30.04,East,98,12.0,-999.0,62,-99.99,,,-99.99,,2013-04-27 23:12:00,
2013-04-27 19:22:00,81.0,66.0,30.04,ENE,76,10.0,-999.0,61,-99.99,,,-99.99,,2013-04-27 23:22:00,
2013-04-27 19:32:00,81.0,67.0,30.04,ESE,111,11.0,-999.0,63,-99.99,,,-99.99,,2013-04-27 23:32:00,
2013-04-27 19:42:00,81.0,67.0,30.04,ESE,111,11.0,-999.0,63,-99.99,,,-99.99,,2013-04-27 23:42:00,
2013-04-27 19:52:00,81.0,67.0,30.04,ESE,121,11.0,-999.0,63,-99.99,,,-99.99,,2013-04-27 23:52:00,
2013-04-27 20:01:00,80.0,66.0,30.04,East,94,11.0,-999.0,62,-99.99,,,-99.99,,2013-04-28 00:01:00,
2013-04-27 20:12:00,80.0,66.0,30.04,East,94,11.0,-999.0,62,-99.99,,,-99.99,,2013-04-28 00:12:00,
2013-04-27 20:21:00,80.0,66.0,30.05,SE,126,9.0,-999.0,63,-99.99,,,-99.99,,2013-04-28 00:21:00,
2013-04-27 20:32:00,80.0,68.0,30.05,East,90,9.0,-999.0,67,-99.99,,,-99.99,,2013-04-28 00:32:00,
2013-04-27 20:43:00,80.0,68.0,30.05,East,90,9.0,-999.0,67,-99.99,,,-99.99,,2013-04-28 00:43:00,
2013-04-27 20:52:00,79.0,66.0,30.06,East,90,8.0,-999.0,65,-99.99,,,-99.99,,2013-04-28 00:52:00,
2013-04-27 21:02:00,79.0,67.0,30.06,East,96,7.0,-999.0,66,-99.99,,,-99.99,,2013-04-28 01:02:00,
2013-04-27 21:11:00,79.0,67.0,30.06,East,96,7.0,-999.0,66,-99.99,,,-99.99,,2013-04-28 01:11:00,
2013-04-27 21:22:00,78.0,67.0,30.07,ESE,107,7.0,-999.0,68,-99.99,,,-99.99,,2013-04-28 01:22:00,
2013-04-27 21:32:00,78.0,66.0,30.07,ESE,112,7.0,-999.0,66,-99.99,,,-99.99,,2013-04-28 01:32:00,
2013-04-27 21:42:00,78.0,66.0,30.07,ESE,112,7.0,-999.0,66,-99.99,,,-99.99,,2013-04-28 01:42:00,
2013-04-27 21:52:00,77.0,66.0,30.08,ESE,123,9.0,-999.0,69,-99.99,,,-99.99,,2013-04-28 01:52:00,
2013-04-27 22:02:00,77.0,66.0,30.08,East,88,9.0,-999.0,68,-99.99,,,-99.99,,2013-04-28 02:02:00,
2013-04-27 22:12:00,77.0,66.0,30.08,East,88,9.0,-999.0,68,-99.99,,,-99.99,,2013-04-28 02:12:00,
2013-04-27 22:22:00,77.0,64.0,30.09,ENE,75,8.0,-999.0,65,-99.99,,,-99.99,,2013-04-28 02:22:00,
2013-04-27 22:32:00,76.0,64.0,30.09,ENE,72,7.0,-999.0,67,-99.99,,,-99.99,,2013-04-28 02:32:00,
2013-04-27 22:42:00,76.0,64.0,30.09,ENE,72,7.0,-999.0,67,-99.99,,,-99.99,,2013-04-28 02:42:00,
2013-04-27 22:52:00,76.0,65.0,30.09,East,98,7.0,-999.0,68,-99.99,,,-99.99,,2013-04-28 02:52:00,
2013-04-27 23:01:00,75.0,64.0,30.09,ENE,68,8.0,-999.0,69,-99.99,,,-99.99,,2013-04-28 03:01:00,
2013-04-27 23:11:00,75.0,64.0,30.09,ENE,68,8.0,-999.0,69,-99.99,,,-99.99,,2013-04-28 03:11:00,
2013-04-27 23:21:00,75.0,65.0,30.09,East,80,7.0,-999.0,71,-99.99,,,-99.99,,2013-04-28 03:21:00,
2013-04-27 23:33:00,74.0,64.0,30.09,ESE,113,7.0,-999.0,71,-99.99,,,-99.99,,2013-04-28 03:33:00,
2013-04-27 23:43:00,74.0,64.0,30.09,ESE,113,7.0,-999.0,71,-99.99,,,-99.99,,2013-04-28 03:43:00,
2013-04-27 23:53:00,74.0,65.0,30.09,East,96,8.0,-999.0,73,-99.99,,,-99.99,,2013-04-28 03:53:00,